Time,TemperatureF,DewpointF,PressureIn,WindDirection,WindDirectionDegrees,WindSpeedMPH,WindSpeedGustMPH,Humidity,HourlyPrecipIn,Conditions,Clouds,dailyrainin,SoftwareType,DateUTC
2013-01-04 00:02:00,42.9,31.9,30.39,ENE,72,3.0,4.0,65,0.00,,,0.00,Wunderground v.1.15,2013-01-04 06:02:00,
2013-01-04 00:08:00,42.9,31.9,30.39,NE,51,3.0,4.0,65,0.00,,,0.00,Wunderground v.1.15,2013-01-04 06:08:00,
2013-01-04 00:13:00,42.9,31.9,30.40,ESE,108,3.0,5.0,65,0.00,,,0.00,Wunderground v.1.15,2013-01-04 06:13:00,
2013-01-04 00:19:00,43.0,32.0,30.40,NE,43,3.0,4.0,65,0.00,,,0.00,Wunderground v.1.15,2013-01-04 06:19:00,
2013-01-04 00:26:00,42.9,31.9,30.40,ENE,78,2.0,4.0,65,0.00,,,0.00,Wunderground v.1.15,2013-01-04 06:26:00,
2013-01-04 00:32:00,43.0,32.0,30.40,NNW,341,2.0,4.0,65,0.00,,,0.00,Wunderground v.1.15,2013-01-04 06:32:00,
2013-01-04 00:37:00,43.0,32.0,30.40,NE,38,2.0,5.0,65,0.00,,,0.00,Wunderground v.1.15,2013-01-04 06:37:00,
2013-01-04 00:44:00,42.9,31.9,30.40,NE,41,2.0,4.0,65,0.00,,,0.00,Wunderground v.1.15,2013-01-04 06:44:00,
2013-01-04 00:50:00,42.9,32.3,30.39,ENE,57,2.0,2.0,66,0.00,,,0.00,Wunderground v.1.15,2013-01-04 06:50:00,
2013-01-04 00:56:00,42.9,31.9,30.40,NE,43,2.0,6.0,65,0.00,,,0.00,Wunderground v.1.15,2013-01-04 06:56:00,
2013-01-04 01:02:00,42.9,31.9,30.39,NE,53,3.0,4.0,65,0.00,,,0.00,Wunderground v.1.15,2013-01-04 07:02:00,
2013-01-04 01:07:00,42.9,31.9,30.39,ENE,74,3.0,4.0,65,0.00,,,0.00,Wunderground v.1.15,2013-01-04 07:07:00,
2013-01-04 01:12:00,42.9,31.9,30.39,NE,35,3.0,4.0,65,0.00,,,0.00,Wunderground v.1.15,2013-01-04 07:12:00,
2013-01-04 01:17:00,43.0,32.0,30.39,NNE,30,3.0,4.0,65,0.00,,,0.00,Wunderground v.1.15,2013-01-04 07:17:00,
2013-01-04 01:23:00,43.0,32.0,30.40,ENE,63,3.0,3.0,65,0.00,,,0.00,Wunderground v.1.15,2013-01-04 07:23:00,
2013-01-04 01:29:00,43.0,32.0,30.40,NNE,18,3.0,3.0,65,0.00,,,0.00,Wunderground v.1.15,2013-01-04 07:29:00,
2013-01-04 01:36:00,43.0,32.0,30.41,NE,49,2.0,3.0,65,0.00,,,0.00,Wunderground v.1.15,2013-01-04 07:36:00,
2013-01-04 01:41:00,43.0,32.0,30.41,NW,324,2.0,2.0,65,0.00,,,0.00,Wunderground v.1.15,2013-01-04 07:41:00,
2013-01-04 01:47:00,43.0,32.0,30.41,NNE,21,2.0,2.0,65,0.00,,,0.00,Wunderground v.1.15,2013-01-04 07:47:00,
2013-01-04 01:54:00,42.8,32.6,30.40,NE,50,2.0,3.0,67,0.00,,,0.00,Wunderground v.1.15,2013-01-04 07:54:00,
2013-01-04 02:00:00,42.5,33.4,30.40,North,352,3.0,3.0,70,0.00,,,0.00,Wunderground v.1.15,2013-01-04 08:00:00,
2013-01-04 02:05:00,42.0,34.0,30.41,North,352,2.0,3.0,73,0.00,,,0.01,Wunderground v.1.15,2013-01-04 08:05:00,
2013-01-04 02:11:00,41.6,34.3,30.41,North,355,1.0,4.0,75,0.00,,,0.01,Wunderground v.1.15,2013-01-04 08:11:00,
2013-01-04 02:18:00,41.1,34.8,30.41,ENE,65,2.0,4.0,78,0.00,,,0.01,Wunderground v.1.15,2013-01-04 08:18:00,
2013-01-04 02:23:00,40.8,34.8,30.41,NE,41,2.0,2.0,79,0.00,,,0.01,Wunderground v.1.15,2013-01-04 08:23:00,
2013-01-04 02:29:00,40.6,34.9,30.41,NW,315,2.0,3.0,80,0.00,,,0.02,Wunderground v.1.15,2013-01-04 08:29:00,
2013-01-04 02:36:00,40.5,34.8,30.41,NW,326,3.0,5.0,80,0.00,,,0.02,Wunderground v.1.15,2013-01-04 08:36:00,
2013-01-04 02:42:00,40.5,35.1,30.41,NNE,26,2.0,2.0,81,0.00,,,0.02,Wunderground v.1.15,2013-01-04 08:42:00,
2013-01-04 02:47:00,40.5,35.1,30.42,NNW,335,1.0,2.0,81,0.00,,,0.02,Wunderground v.1.15,2013-01-04 08:47:00,
2013-01-04 02:53:00,40.4,35.3,30.42,NNW,330,1.0,1.0,82,0.00,,,0.02,Wunderground v.1.15,2013-01-04 08:53:00,
2013-01-04 02:59:00,40.5,35.4,30.43,NNW,336,1.0,2.0,82,0.00,,,0.02,Wunderground v.1.15,2013-01-04 08:59:00,
2013-01-04 03:06:00,40.6,35.2,30.42,NNW,337,1.0,2.0,81,0.00,,,0.02,Wunderground v.1.15,2013-01-04 09:06:00,
2013-01-04 03:11:00,40.7,35.6,30.43,NW,319,1.0,1.0,82,0.00,,,0.02,Wunderground v.1.15,2013-01-04 09:11:00,
2013-01-04 03:17:00,40.7,35.3,30.44,NNW,337,2.0,6.0,81,0.00,,,0.02,Wunderground v.1.15,2013-01-04 09:17:00,
2013-01-04 03:24:00,40.8,35.1,30.44,NNW,340,3.0,3.0,80,0.00,,,0.02,Wunderground v.1.15,2013-01-04 09:24:00,
2013-01-04 03:29:00,40.7,35.0,30.43,NE,47,2.0,3.0,80,0.00,,,0.02,Wunderground v.1.15,2013-01-04 09:29:00,
2013-01-04 03:35:00,40.6,34.9,30.43,NNW,335,3.0,6.0,80,0.00,,,0.02,Wunderground v.1.15,2013-01-04 09:35:00,
2013-01-04 03:41:00,40.6,34.9,30.44,NNE,27,3.0,3.0,80,0.00,,,0.02,Wunderground v.1.15,2013-01-04 09:41:00,
2013-01-04 03:48:00,40.2,34.5,30.42,NNE,32,3.0,7.0,80,0.00,,,0.03,Wunderground v.1.15,2013-01-04 09:48:00,
2013-01-04 03:53:00,39.9,34.5,30.43,NNW,335,4.0,6.0,81,0.00,,,0.03,Wunderground v.1.15,2013-01-04 09:53:00,
2013-01-04 03:59:00,39.6,34.6,30.44,NNW,343,3.0,3.0,82,0.00,,,0.03,Wunderground v.1.15,2013-01-04 09:59:00,
2013-01-04 04:05:00,39.5,34.8,30.44,NE,53,2.0,3.0,83,0.00,,,0.03,Wunderground v.1.15,2013-01-04 10:05:00,
2013-01-04 04:12:00,39.4,34.7,30.44,ENE,75,3.0,3.0,83,0.00,,,0.03,Wunderground v.1.15,2013-01-04 10:12:00,
2013-01-04 04:18:00,39.4,34.7,30.44,NE,34,3.0,3.0,83,0.00,,,0.03,Wunderground v.1.15,2013-01-04 10:18:00,
2013-01-04 04:23:00,39.3,34.6,30.44,NW,307,3.0,7.0,83,0.00,,,0.03,Wunderground v.1.15,2013-01-04 10:23:00,
2013-01-04 04:29:00,39.2,34.5,30.43,NNE,32,4.0,4.0,83,0.00,,,0.03,Wunderground v.1.15,2013-01-04 10:29:00,
2013-01-04 04:36:00,39.2,34.5,30.44,NE,47,5.0,9.0,83,0.00,,,0.03,Wunderground v.1.15,2013-01-04 10:36:00,
2013-01-04 04:42:00,39.1,34.4,30.44,NNE,23,5.0,5.0,83,0.00,,,0.03,Wunderground v.1.15,2013-01-04 10:42:00,
2013-01-04 04:47:00,39.1,34.7,30.44,NW,308,4.0,7.0,84,0.00,,,0.03,Wunderground v.1.15,2013-01-04 10:47:00,
2013-01-04 04:53:00,38.9,34.5,30.44,NE,46,3.0,5.0,84,0.00,,,0.03,Wunderground v.1.15,2013-01-04 10:53:00,
2013-01-04 05:00:00,38.7,34.3,30.44,SE,141,4.0,4.0,84,0.00,,,0.03,Wunderground v.1.15,2013-01-04 11:00:00,
2013-01-04 05:06:00,38.5,34.4,30.44,NE,49,5.0,6.0,85,0.00,,,0.03,Wunderground v.1.15,2013-01-04 11:06:00,
2013-01-04 05:11:00,38.4,34.3,30.44,NNE,25,4.0,4.0,85,0.00,,,0.03,Wunderground v.1.15,2013-01-04 11:11:00,
2013-01-04 05:18:00,38.3,34.5,30.44,NNE,30,5.0,10.0,86,0.00,,,0.03,Wunderground v.1.15,2013-01-04 11:18:00,
2013-01-04 05:24:00,38.1,34.3,30.44,NE,53,6.0,9.0,86,0.00,,,0.03,Wunderground v.1.15,2013-01-04 11:24:00,
2013-01-04 05:29:00,38.1,34.3,30.44,ENE,63,7.0,7.0,86,0.00,,,0.03,Wunderground v.1.15,2013-01-04 11:29:00,
2013-01-04 05:35:00,38.0,34.5,30.45,NE,35,6.0,7.0,87,0.00,,,0.03,Wunderground v.1.15,2013-01-04 11:35:00,
2013-01-04 05:42:00,37.9,34.4,30.45,NNE,30,5.0,5.0,87,0.00,,,0.03,Wunderground v.1.15,2013-01-04 11:42:00,
2013-01-04 05:48:00,37.9,34.4,30.45,NNE,30,5.0,10.0,87,0.00,,,0.03,Wunderground v.1.15,2013-01-04 11:48:00,
2013-01-04 05:53:00,37.8,34.3,30.45,NE,44,5.0,8.0,87,0.00,,,0.03,Wunderground v.1.15,2013-01-04 11:53:00,
2013-01-04 06:00:00,37.7,34.5,30.44,NE,53,5.0,5.0,88,0.00,,,0.03,Wunderground v.1.15,2013-01-04 12:00:00,
2013-01-04 06:06:00,37.7,34.5,30.45,WSW,242,5.0,7.0,88,0.00,,,0.03,Wunderground v.1.15,2013-01-04 12:06:00,
2013-01-04 06:12:00,37.7,34.5,30.45,NE,37,4.0,8.0,88,0.00,,,0.03,Wunderground v.1.15,2013-01-04 12:12:00,
2013-01-04 06:17:00,37.7,34.5,30.45,NE,53,4.0,8.0,88,0.00,,,0.03,Wunderground v.1.15,2013-01-04 12:17:00,
2013-01-04 06:23:00,37.7,34.5,30.45,NNW,337,5.0,5.0,88,0.00,,,0.03,Wunderground v.1.15,2013-01-04 12:23:00,
2013-01-04 06:30:00,37.7,34.5,30.44,NNE,13,5.0,5.0,88,0.00,,,0.03,Wunderground v.1.15,2013-01-04 12:30:00,
2013-01-04 06:35:00,37.6,34.4,30.45,NNE,26,6.0,9.0,88,0.00,,,0.03,Wunderground v.1.15,2013-01-04 12:35:00,
2013-01-04 06:41:00,37.7,34.5,30.46,NE,43,4.0,6.0,88,0.00,,,0.03,Wunderground v.1.15,2013-01-04 12:41:00,
2013-01-04 06:48:00,37.6,34.4,30.47,NNE,29,4.0,6.0,88,0.00,,,0.03,Wunderground v.1.15,2013-01-04 12:48:00,
2013-01-04 06:54:00,37.6,34.4,30.47,NNW,335,6.0,6.0,88,0.00,,,0.03,Wunderground v.1.15,2013-01-04 12:54:00,
2013-01-04 06:59:00,37.7,34.5,30.47,NNE,14,5.0,7.0,88,0.00,,,0.03,Wunderground v.1.15,2013-01-04 12:59:00,
2013-01-04 07:05:00,37.6,34.4,30.46,NNW,328,5.0,7.0,88,0.00,,,0.03,Wunderground v.1.15,2013-01-04 13:05:00,
2013-01-04 07:11:00,37.6,34.4,30.46,NNE,25,6.0,7.0,88,0.00,,,0.03,Wunderground v.1.15,2013-01-04 13:11:00,
2013-01-04 07:18:00,37.6,34.4,30.46,NE,35,5.0,8.0,88,0.00,,,0.03,Wunderground v.1.15,2013-01-04 13:18:00,
2013-01-04 07:24:00,37.6,34.4,30.46,NE,45,6.0,7.0,88,0.00,,,0.03,Wunderground v.1.15,2013-01-04 13:24:00,
2013-01-04 07:29:00,37.6,34.4,30.46,NNE,30,7.0,7.0,88,0.00,,,0.03,Wunderground v.1.15,2013-01-04 13:29:00,
2013-01-04 07:35:00,37.5,34.6,30.47,NE,47,7.0,12.0,89,0.00,,,0.03,Wunderground v.1.15,2013-01-04 13:35:00,
2013-01-04 07:42:00,37.5,34.6,30.48,NE,53,5.0,6.0,89,0.00,,,0.03,Wunderground v.1.15,2013-01-04 13:42:00,
2013-01-04 07:47:00,37.5,34.6,30.48,NE,53,4.0,6.0,89,0.00,,,0.03,Wunderground v.1.15,2013-01-04 13:47:00,
2013-01-04 07:53:00,37.5,34.6,30.49,NNE,27,5.0,7.0,89,0.00,,,0.03,Wunderground v.1.15,2013-01-04 13:53:00,
2013-01-04 08:00:00,37.5,34.6,30.48,ESE,104,5.0,5.0,89,0.00,,,0.03,Wunderground v.1.15,2013-01-04 14:00:00,
2013-01-04 08:06:00,37.6,34.7,30.47,ENE,65,6.0,9.0,89,0.00,,,0.03,Wunderground v.1.15,2013-01-04 14:06:00,
2013-01-04 08:11:00,37.6,34.7,30.48,ENE,63,7.0,8.0,89,0.00,,,0.03,Wunderground v.1.15,2013-01-04 14:11:00,
2013-01-04 08:17:00,37.6,34.7,30.48,ENE,62,7.0,8.0,89,0.00,,,0.03,Wunderground v.1.15,2013-01-04 14:17:00,
2013-01-04 08:23:00,37.6,34.7,30.49,North,3,5.0,6.0,89,0.00,,,0.03,Wunderground v.1.15,2013-01-04 14:23:00,
2013-01-04 08:30:00,37.6,34.7,30.48,NE,41,5.0,5.0,89,0.00,,,0.03,Wunderground v.1.15,2013-01-04 14:30:00,
2013-01-04 08:35:00,37.6,34.7,30.48,NE,49,7.0,9.0,89,0.00,,,0.03,Wunderground v.1.15,2013-01-04 14:35:00,
2013-01-04 08:41:00,37.7,34.8,30.48,NE,37,7.0,7.0,89,0.00,,,0.03,Wunderground v.1.15,2013-01-04 14:41:00,
2013-01-04 08:48:00,37.7,34.8,30.49,East,96,6.0,10.0,89,0.00,,,0.03,Wunderground v.1.15,2013-01-04 14:48:00,
2013-01-04 08:54:00,37.8,34.8,30.49,NE,41,5.0,6.0,89,0.00,,,0.04,Wunderground v.1.15,2013-01-04 14:54:00,
2013-01-04 08:59:00,37.7,34.8,30.49,NE,44,4.0,10.0,89,0.00,,,0.04,Wunderground v.1.15,2013-01-04 14:59:00,
2013-01-04 09:05:00,37.6,34.7,30.49,NE,46,6.0,10.0,89,0.00,,,0.04,Wunderground v.1.15,2013-01-04 15:05:00,
2013-01-04 09:12:00,37.6,34.9,30.50,East,101,6.0,9.0,90,0.00,,,0.04,Wunderground v.1.15,2013-01-04 15:12:00,
2013-01-04 09:18:00,37.7,35.0,30.50,ENE,60,5.0,9.0,90,0.00,,,0.04,Wunderground v.1.15,2013-01-04 15:18:00,
2013-01-04 09:23:00,37.7,35.0,30.50,NE,50,5.0,7.0,90,0.00,,,0.04,Wunderground v.1.15,2013-01-04 15:23:00,
2013-01-04 09:29:00,37.8,35.1,30.50,NNE,27,5.0,6.0,90,0.00,,,0.04,Wunderground v.1.15,2013-01-04 15:29:00,
2013-01-04 09:36:00,37.8,35.1,30.50,NNE,18,5.0,7.0,90,0.00,,,0.04,Wunderground v.1.15,2013-01-04 15:36:00,
2013-01-04 09:41:00,37.8,35.1,30.50,NNE,30,6.0,6.0,90,0.00,,,0.04,Wunderground v.1.15,2013-01-04 15:41:00,
2013-01-04 09:47:00,37.9,35.5,30.50,North,9,6.0,8.0,91,0.00,,,0.04,Wunderground v.1.15,2013-01-04 15:47:00,
2013-01-04 09:53:00,38.0,35.6,30.50,ENE,63,5.0,6.0,91,0.00,,,0.04,Wunderground v.1.15,2013-01-04 15:53:00,
2013-01-04 10:00:00,38.0,35.3,30.50,ENE,60,5.0,7.0,90,0.00,,,0.05,Wunderground v.1.15,2013-01-04 16:00:00,
2013-01-04 10:06:00,38.1,35.7,30.50,NE,43,5.0,7.0,91,0.00,,,0.05,Wunderground v.1.15,2013-01-04 16:06:00,
2013-01-04 10:11:00,38.1,35.4,30.50,NE,37,6.0,8.0,90,0.00,,,0.05,Wunderground v.1.15,2013-01-04 16:11:00,
2013-01-04 10:17:00,38.1,35.4,30.50,NE,55,6.0,11.0,90,0.00,,,0.05,Wunderground v.1.15,2013-01-04 16:17:00,
2013-01-04 10:24:00,38.2,35.5,30.50,NE,46,6.0,6.0,90,0.00,,,0.05,Wunderground v.1.15,2013-01-04 16:24:00,
2013-01-04 10:30:00,38.3,35.6,30.50,NNE,19,6.0,9.0,90,0.00,,,0.05,Wunderground v.1.15,2013-01-04 16:30:00,
2013-01-04 10:35:00,38.4,35.7,30.50,NE,35,6.0,9.0,90,0.00,,,0.05,Wunderground v.1.15,2013-01-04 16:35:00,
2013-01-04 10:41:00,38.4,35.7,30.50,ENE,68,6.0,6.0,90,0.00,,,0.05,Wunderground v.1.15,2013-01-04 16:41:00,
2013-01-04 10:47:00,38.6,35.9,30.50,NNW,347,5.0,6.0,90,0.00,,,0.05,Wunderground v.1.15,2013-01-04 16:47:00,
2013-01-04 10:54:00,38.6,35.9,30.50,NNE,18,6.0,8.0,90,0.00,,,0.05,Wunderground v.1.15,2013-01-04 16:54:00,
2013-01-04 10:59:00,38.7,35.7,30.50,NE,50,6.0,6.0,89,0.00,,,0.05,Wunderground v.1.15,2013-01-04 16:59:00,
2013-01-04 11:05:00,38.8,35.8,30.50,North,6,5.0,9.0,89,0.00,,,0.05,Wunderground v.1.15,2013-01-04 17:05:00,
2013-01-04 11:12:00,38.9,35.9,30.49,NNE,30,4.0,5.0,89,0.00,,,0.05,Wunderground v.1.15,2013-01-04 17:12:00,
2013-01-04 11:18:00,38.9,35.6,30.49,NE,53,5.0,7.0,88,0.00,,,0.05,Wunderground v.1.15,2013-01-04 17:18:00,
2013-01-04 11:24:00,38.9,35.6,30.48,NNE,28,5.0,8.0,88,0.00,,,0.05,Wunderground v.1.15,2013-01-04 17:24:00,
2013-01-04 11:29:00,39.0,35.7,30.48,NE,35,5.0,5.0,88,0.00,,,0.05,Wunderground v.1.15,2013-01-04 17:29:00,
2013-01-04 11:36:00,39.1,35.8,30.48,ENE,71,5.0,6.0,88,0.00,,,0.05,Wunderground v.1.15,2013-01-04 17:36:00,
2013-01-04 11:42:00,39.2,36.2,30.48,NNE,27,4.0,6.0,89,0.00,,,0.06,Wunderground v.1.15,2013-01-04 17:42:00,
2013-01-04 11:47:00,39.1,35.8,30.48,NNE,18,5.0,9.0,88,0.09,,,0.07,Wunderground v.1.15,2013-01-04 17:47:00,
2013-01-04 11:53:00,39.1,36.1,30.47,ENE,60,5.0,6.0,89,0.09,,,0.07,Wunderground v.1.15,2013-01-04 17:53:00,
2013-01-04 12:00:00,39.3,36.6,30.47,NE,51,4.0,4.0,90,0.05,,,0.07,Wunderground v.1.15,2013-01-04 18:00:00,
2013-01-04 12:06:00,39.3,36.3,30.46,NE,53,5.0,7.0,89,0.00,,,0.07,Wunderground v.1.15,2013-01-04 18:06:00,
2013-01-04 12:11:00,39.3,36.6,30.45,NE,41,5.0,7.0,90,0.00,,,0.07,Wunderground v.1.15,2013-01-04 18:11:00,
2013-01-04 12:17:00,39.4,36.7,30.45,NE,34,4.0,7.0,90,0.00,,,0.07,Wunderground v.1.15,2013-01-04 18:17:00,
2013-01-04 12:24:00,39.3,36.3,30.44,NNE,13,4.0,9.0,89,0.00,,,0.07,Wunderground v.1.15,2013-01-04 18:24:00,
2013-01-04 12:29:00,39.2,36.2,30.44,East,95,4.0,5.0,89,0.00,,,0.07,Wunderground v.1.15,2013-01-04 18:29:00,
2013-01-04 12:35:00,39.2,36.2,30.44,NNE,18,4.0,5.0,89,0.00,,,0.07,Wunderground v.1.15,2013-01-04 18:35:00,
2013-01-04 12:42:00,39.3,36.3,30.44,NNE,30,4.0,6.0,89,0.00,,,0.07,Wunderground v.1.15,2013-01-04 18:42:00,
2013-01-04 12:48:00,39.3,36.3,30.44,NNE,27,4.0,6.0,89,0.00,,,0.07,Wunderground v.1.15,2013-01-04 18:48:00,
2013-01-04 12:53:00,39.4,36.7,30.43,NE,50,4.0,4.0,90,0.00,,,0.07,Wunderground v.1.15,2013-01-04 18:53:00,
2013-01-04 12:59:00,39.5,36.8,30.43,NNE,24,4.0,4.0,90,0.00,,,0.07,Wunderground v.1.15,2013-01-04 18:59:00,
2013-01-04 13:05:00,39.4,36.4,30.42,NE,35,4.0,6.0,89,0.00,,,0.07,Wunderground v.1.15,2013-01-04 19:05:00,
2013-01-04 13:12:00,39.4,36.4,30.42,NE,46,5.0,7.0,89,0.00,,,0.07,Wunderground v.1.15,2013-01-04 19:12:00,
2013-01-04 13:18:00,39.5,36.8,30.41,NNE,23,5.0,8.0,90,0.00,,,0.07,Wunderground v.1.15,2013-01-04 19:18:00,
2013-01-04 13:23:00,39.7,37.0,30.41,NE,34,3.0,5.0,90,0.00,,,0.07,Wunderground v.1.15,2013-01-04 19:23:00,
2013-01-04 13:29:00,39.7,37.0,30.40,NNW,347,3.0,3.0,90,0.00,,,0.07,Wunderground v.1.15,2013-01-04 19:29:00,
2013-01-04 13:36:00,39.6,36.9,30.40,NNW,339,4.0,6.0,90,0.00,,,0.08,Wunderground v.1.15,2013-01-04 19:36:00,
2013-01-04 13:42:00,39.6,36.9,30.40,ENE,62,5.0,8.0,90,0.00,,,0.08,Wunderground v.1.15,2013-01-04 19:42:00,
2013-01-04 13:47:00,39.5,36.5,30.40,ENE,62,5.0,8.0,89,0.00,,,0.08,Wunderground v.1.15,2013-01-04 19:47:00,
2013-01-04 13:53:00,39.6,36.9,30.40,NNE,32,6.0,6.0,90,0.05,,,0.09,Wunderground v.1.15,2013-01-04 19:53:00,
2013-01-04 14:00:00,39.6,36.9,30.39,NNE,21,5.0,6.0,90,0.05,,,0.09,Wunderground v.1.15,2013-01-04 20:00:00,
2013-01-04 14:06:00,39.8,37.1,30.39,NNE,27,5.0,6.0,90,0.00,,,0.09,Wunderground v.1.15,2013-01-04 20:06:00,
2013-01-04 14:11:00,39.8,37.1,30.39,ENE,61,4.0,5.0,90,0.00,,,0.09,Wunderground v.1.15,2013-01-04 20:11:00,
2013-01-04 14:17:00,39.7,36.7,30.39,East,79,5.0,7.0,89,0.00,,,0.09,Wunderground v.1.15,2013-01-04 20:17:00,
2013-01-04 14:24:00,39.8,36.8,30.38,NE,53,6.0,6.0,89,0.00,,,0.09,Wunderground v.1.15,2013-01-04 20:24:00,
2013-01-04 14:30:00,40.0,37.0,30.38,NE,35,4.0,4.0,89,0.00,,,0.09,Wunderground v.1.15,2013-01-04 20:30:00,
2013-01-04 14:35:00,40.2,36.9,30.39,ENE,58,4.0,4.0,88,0.00,,,0.09,Wunderground v.1.15,2013-01-04 20:35:00,
2013-01-04 14:41:00,40.5,37.2,30.38,North,6,4.0,4.0,88,0.00,,,0.09,Wunderground v.1.15,2013-01-04 20:41:00,
2013-01-04 14:48:00,40.8,37.8,30.38,East,80,3.0,4.0,89,0.00,,,0.09,Wunderground v.1.15,2013-01-04 20:48:00,
2013-01-04 14:54:00,40.8,37.2,30.38,NE,44,4.0,6.0,87,0.00,,,0.09,Wunderground v.1.15,2013-01-04 20:54:00,
2013-01-04 14:59:00,40.7,37.1,30.38,NNW,339,5.0,5.0,87,0.00,,,0.09,Wunderground v.1.15,2013-01-04 20:59:00,
2013-01-04 15:05:00,40.9,37.3,30.38,ENE,65,4.0,6.0,87,0.00,,,0.09,Wunderground v.1.15,2013-01-04 21:05:00,
2013-01-04 15:11:00,40.8,37.5,30.38,NNW,344,4.0,6.0,88,0.00,,,0.09,Wunderground v.1.15,2013-01-04 21:11:00,
2013-01-04 15:18:00,41.0,37.4,30.37,NNW,345,3.0,6.0,87,0.00,,,0.09,Wunderground v.1.15,2013-01-04 21:18:00,
2013-01-04 15:24:00,41.1,37.5,30.38,ENE,62,2.0,4.0,87,0.00,,,0.09,Wunderground v.1.15,2013-01-04 21:24:00,
2013-01-04 15:29:00,41.1,37.5,30.38,NE,43,2.0,2.0,87,0.00,,,0.09,Wunderground v.1.15,2013-01-04 21:29:00,
2013-01-04 15:35:00,41.1,37.5,30.38,NNE,13,3.0,6.0,87,0.00,,,0.09,Wunderground v.1.15,2013-01-04 21:35:00,
2013-01-04 15:42:00,40.9,37.3,30.38,ENE,75,4.0,5.0,87,0.00,,,0.09,Wunderground v.1.15,2013-01-04 21:42:00,
2013-01-04 15:48:00,41.0,37.4,30.39,NE,48,4.0,5.0,87,0.00,,,0.09,Wunderground v.1.15,2013-01-04 21:48:00,
2013-01-04 15:53:00,41.0,37.4,30.39,ENE,78,3.0,5.0,87,0.00,,,0.09,Wunderground v.1.15,2013-01-04 21:53:00,
2013-01-04 15:59:00,41.1,37.5,30.39,North,354,3.0,3.0,87,0.00,,,0.09,Wunderground v.1.15,2013-01-04 21:59:00,
2013-01-04 16:06:00,41.1,37.5,30.39,NE,37,2.0,4.0,87,0.00,,,0.09,Wunderground v.1.15,2013-01-04 22:06:00,
2013-01-04 16:11:00,41.2,37.6,30.39,NNE,27,3.0,3.0,87,0.00,,,0.09,Wunderground v.1.15,2013-01-04 22:11:00,
2013-01-04 16:17:00,41.2,37.6,30.39,NW,326,2.0,3.0,87,0.00,,,0.09,Wunderground v.1.15,2013-01-04 22:17:00,
2013-01-04 16:23:00,41.1,37.5,30.39,NE,35,3.0,3.0,87,0.00,,,0.09,Wunderground v.1.15,2013-01-04 22:23:00,
2013-01-04 16:30:00,41.1,37.5,30.39,NE,34,3.0,5.0,87,0.00,,,0.09,Wunderground v.1.15,2013-01-04 22:30:00,
2013-01-04 16:36:00,41.1,37.5,30.39,NE,40,3.0,5.0,87,0.00,,,0.09,Wunderground v.1.15,2013-01-04 22:36:00,
2013-01-04 16:41:00,41.0,37.1,30.39,NW,326,3.0,4.0,86,0.00,,,0.09,Wunderground v.1.15,2013-01-04 22:41:00,
2013-01-04 16:47:00,41.1,37.5,30.39,NNW,333,2.0,4.0,87,0.00,,,0.09,Wunderground v.1.15,2013-01-04 22:47:00,
2013-01-04 16:54:00,41.1,37.5,30.40,NE,51,2.0,2.0,87,0.00,,,0.09,Wunderground v.1.15,2013-01-04 22:54:00,
2013-01-04 17:00:00,41.2,37.6,30.39,NE,51,2.0,2.0,87,0.00,,,0.09,Wunderground v.1.15,2013-01-04 23:00:00,
2013-01-04 17:06:00,41.1,37.5,30.39,NW,321,2.0,4.0,87,0.00,,,0.09,Wunderground v.1.15,2013-01-04 23:06:00,
2013-01-04 17:11:00,41.1,37.5,30.39,ENE,63,2.0,5.0,87,0.00,,,0.09,Wunderground v.1.15,2013-01-04 23:11:00,
2013-01-04 17:17:00,40.9,37.3,30.39,NNE,32,3.0,6.0,87,0.00,,,0.09,Wunderground v.1.15,2013-01-04 23:17:00,
2013-01-04 17:24:00,40.9,37.6,30.39,NNE,26,3.0,4.0,88,0.00,,,0.09,Wunderground v.1.15,2013-01-04 23:24:00,
2013-01-04 17:30:00,40.8,37.5,30.39,NE,43,3.0,3.0,88,0.00,,,0.09,Wunderground v.1.15,2013-01-04 23:30:00,
2013-01-04 17:35:00,40.7,37.4,30.39,NNE,23,3.0,5.0,88,0.00,,,0.09,Wunderground v.1.15,2013-01-04 23:35:00,
2013-01-04 17:41:00,40.7,37.4,30.39,North,357,3.0,4.0,88,0.00,,,0.09,Wunderground v.1.15,2013-01-04 23:41:00,
2013-01-04 17:48:00,40.7,37.4,30.39,NE,56,4.0,4.0,88,0.00,,,0.09,Wunderground v.1.15,2013-01-04 23:48:00,
2013-01-04 17:53:00,40.8,37.5,30.39,NNE,30,3.0,5.0,88,0.00,,,0.09,Wunderground v.1.15,2013-01-04 23:53:00,
2013-01-04 17:59:00,40.8,37.8,30.40,ENE,63,2.0,2.0,89,0.00,,,0.09,Wunderground v.1.15,2013-01-04 23:59:00,
2013-01-04 18:05:00,40.8,37.8,30.40,North,4,2.0,3.0,89,0.00,,,0.09,Wunderground v.1.15,2013-01-05 00:05:00,
2013-01-04 18:12:00,40.8,37.8,30.40,NE,41,2.0,3.0,89,0.00,,,0.09,Wunderground v.1.15,2013-01-05 00:12:00,
2013-01-04 18:18:00,40.8,37.8,30.40,ENE,63,2.0,3.0,89,0.00,,,0.09,Wunderground v.1.15,2013-01-05 00:18:00,
2013-01-04 18:23:00,40.7,37.7,30.40,NNE,28,2.0,3.0,89,0.00,,,0.09,Wunderground v.1.15,2013-01-05 00:23:00,
2013-01-04 18:29:00,40.7,37.7,30.40,NW,326,2.0,2.0,89,0.00,,,0.09,Wunderground v.1.15,2013-01-05 00:29:00,
2013-01-04 18:35:00,40.7,38.0,30.40,NE,43,1.0,2.0,90,0.00,,,0.09,Wunderground v.1.15,2013-01-05 00:35:00,
2013-01-04 18:42:00,40.7,37.7,30.40,NNE,13,2.0,5.0,89,0.00,,,0.09,Wunderground v.1.15,2013-01-05 00:42:00,
2013-01-04 18:48:00,40.8,37.8,30.40,NE,43,3.0,5.0,89,0.00,,,0.09,Wunderground v.1.15,2013-01-05 00:48:00,
2013-01-04 18:53:00,40.7,37.7,30.40,NE,53,2.0,3.0,89,0.00,,,0.09,Wunderground v.1.15,2013-01-05 00:53:00,
2013-01-04 18:59:00,40.8,37.8,30.40,NNE,29,2.0,2.0,89,0.00,,,0.09,Wunderground v.1.15,2013-01-05 00:59:00,
2013-01-04 19:05:00,40.8,38.1,30.40,ENE,76,1.0,2.0,90,0.00,,,0.09,Wunderground v.1.15,2013-01-05 01:05:00,
2013-01-04 19:12:00,40.7,37.7,30.40,NNE,15,1.0,3.0,89,0.00,,,0.09,Wunderground v.1.15,2013-01-05 01:12:00,
2013-01-04 19:18:00,40.8,38.1,30.40,NE,50,1.0,3.0,90,0.00,,,0.09,Wunderground v.1.15,2013-01-05 01:18:00,
2013-01-04 19:23:00,40.8,37.8,30.41,NW,308,1.0,2.0,89,0.00,,,0.09,Wunderground v.1.15,2013-01-05 01:23:00,
2013-01-04 19:29:00,40.8,37.8,30.41,NW,307,1.0,2.0,89,0.00,,,0.09,Wunderground v.1.15,2013-01-05 01:29:00,
2013-01-04 19:35:00,40.7,37.7,30.40,NE,45,2.0,3.0,89,0.00,,,0.09,Wunderground v.1.15,2013-01-05 01:35:00,
2013-01-04 19:42:00,40.7,37.7,30.41,NNE,31,2.0,2.0,89,0.00,,,0.09,Wunderground v.1.15,2013-01-05 01:42:00,
2013-01-04 19:48:00,40.7,38.0,30.41,East,79,2.0,5.0,90,0.00,,,0.09,Wunderground v.1.15,2013-01-05 01:48:00,
2013-01-04 19:54:00,40.6,37.9,30.41,North,9,2.0,3.0,90,0.00,,,0.09,Wunderground v.1.15,2013-01-05 01:54:00,
2013-01-04 19:59:00,40.6,37.9,30.41,NNW,332,3.0,3.0,90,0.00,,,0.09,Wunderground v.1.15,2013-01-05 01:59:00,
2013-01-04 20:05:00,40.6,37.9,30.41,NW,323,2.0,3.0,90,0.00,,,0.09,Wunderground v.1.15,2013-01-05 02:05:00,
2013-01-04 20:12:00,40.6,37.9,30.41,NE,41,2.0,2.0,90,0.00,,,0.09,Wunderground v.1.15,2013-01-05 02:12:00,
2013-01-04 20:18:00,40.6,37.9,30.41,NNE,30,2.0,3.0,90,0.00,,,0.09,Wunderground v.1.15,2013-01-05 02:18:00,
2013-01-04 20:23:00,40.6,37.9,30.42,NW,326,2.0,2.0,90,0.00,,,0.09,Wunderground v.1.15,2013-01-05 02:23:00,
2013-01-04 20:29:00,40.6,37.9,30.42,NNE,29,2.0,2.0,90,0.00,,,0.09,Wunderground v.1.15,2013-01-05 02:29:00,
2013-01-04 20:36:00,40.6,37.9,30.42,NNE,23,2.0,3.0,90,0.00,,,0.09,Wunderground v.1.15,2013-01-05 02:36:00,
2013-01-04 20:42:00,40.6,37.9,30.42,NNE,13,1.0,2.0,90,0.00,,,0.09,Wunderground v.1.15,2013-01-05 02:42:00,
2013-01-04 20:47:00,40.6,37.9,30.42,North,359,0.0,2.0,90,0.00,,,0.09,Wunderground v.1.15,2013-01-05 02:47:00,
2013-01-04 20:53:00,40.6,37.9,30.42,NNW,335,1.0,2.0,90,0.00,,,0.09,Wunderground v.1.15,2013-01-05 02:53:00,
2013-01-04 21:00:00,40.6,37.9,30.41,NNE,13,1.0,1.0,90,0.00,,,0.09,Wunderground v.1.15,2013-01-05 03:00:00,
2013-01-04 21:06:00,40.6,37.9,30.42,North,358,1.0,2.0,90,0.00,,,0.09,Wunderground v.1.15,2013-01-05 03:06:00,
2013-01-04 21:11:00,40.6,37.9,30.42,North,356,2.0,2.0,90,0.00,,,0.09,Wunderground v.1.15,2013-01-05 03:11:00,
2013-01-04 21:17:00,40.6,38.2,30.42,NNW,330,2.0,3.0,91,0.00,,,0.09,Wunderground v.1.15,2013-01-05 03:17:00,
2013-01-04 21:24:00,40.6,37.9,30.42,NW,319,2.0,3.0,90,0.00,,,0.09,Wunderground v.1.15,2013-01-05 03:24:00,
2013-01-04 21:30:00,40.6,37.9,30.42,NW,315,2.0,2.0,90,0.00,,,0.09,Wunderground v.1.15,2013-01-05 03:30:00,
2013-01-04 21:35:00,40.5,37.8,30.41,North,360,2.0,2.0,90,0.00,,,0.09,Wunderground v.1.15,2013-01-05 03:35:00,
2013-01-04 21:41:00,40.6,37.9,30.42,NNW,344,2.0,2.0,90,0.00,,,0.09,Wunderground v.1.15,2013-01-05 03:41:00,
2013-01-04 21:47:00,40.6,37.9,30.42,NW,314,1.0,3.0,90,0.00,,,0.09,Wunderground v.1.15,2013-01-05 03:47:00,
2013-01-04 21:54:00,40.6,37.9,30.42,North,356,1.0,3.0,90,0.00,,,0.09,Wunderground v.1.15,2013-01-05 03:54:00,
2013-01-04 22:00:00,40.6,37.9,30.41,NNW,333,1.0,1.0,90,0.00,,,0.09,Wunderground v.1.15,2013-01-05 04:00:00,
2013-01-04 22:05:00,40.6,37.9,30.41,NNW,337,1.0,3.0,90,0.00,,,0.09,Wunderground v.1.15,2013-01-05 04:05:00,
2013-01-04 22:11:00,40.5,38.1,30.42,WNW,290,2.0,2.0,91,0.00,,,0.09,Wunderground v.1.15,2013-01-05 04:11:00,
2013-01-04 22:18:00,40.4,38.0,30.42,NNW,342,2.0,4.0,91,0.00,,,0.09,Wunderground v.1.15,2013-01-05 04:18:00,
2013-01-04 22:24:00,40.4,38.0,30.41,NNW,335,2.0,4.0,91,0.00,,,0.09,Wunderground v.1.15,2013-01-05 04:24:00,
2013-01-04 22:29:00,40.4,38.0,30.41,NE,53,2.0,2.0,91,0.00,,,0.09,Wunderground v.1.15,2013-01-05 04:29:00,
2013-01-04 22:35:00,40.5,38.1,30.41,NNE,32,1.0,2.0,91,0.00,,,0.09,Wunderground v.1.15,2013-01-05 04:35:00,
2013-01-04 22:42:00,40.5,37.8,30.41,NW,310,1.0,1.0,90,0.00,,,0.09,Wunderground v.1.15,2013-01-05 04:42:00,
2013-01-04 22:48:00,40.5,37.8,30.41,North,352,2.0,2.0,90,0.00,,,0.09,Wunderground v.1.15,2013-01-05 04:48:00,
2013-01-04 22:55:00,40.4,37.7,30.40,NW,323,2.0,2.0,90,0.00,,,0.09,Wunderground v.1.15,2013-01-05 04:55:00,
2013-01-04 23:02:00,40.5,37.8,30.40,NNE,24,1.0,2.0,90,0.00,,,0.09,Wunderground v.1.15,2013-01-05 05:02:00,
2013-01-04 23:03:00,40.5,37.8,30.40,NW,323,1.0,2.0,90,0.00,,,0.09,Wunderground v.1.15,2013-01-05 05:03:00,
2013-01-04 23:09:00,40.5,37.8,30.40,NNE,31,1.0,2.0,90,0.00,,,0.09,Wunderground v.1.15,2013-01-05 05:09:00,
2013-01-04 23:12:00,40.4,37.7,30.40,ENE,57,2.0,2.0,90,0.00,,,0.09,Wunderground v.1.15,2013-01-05 05:12:00,
2013-01-04 23:18:00,40.5,37.5,30.40,NE,38,1.0,4.0,89,0.00,,,0.09,Wunderground v.1.15,2013-01-05 05:18:00,
2013-01-04 23:23:00,40.5,37.5,30.40,NNE,18,1.0,3.0,89,0.00,,,0.09,Wunderground v.1.15,2013-01-05 05:23:00,
2013-01-04 23:29:00,40.6,37.3,30.40,NE,43,1.0,1.0,88,0.00,,,0.09,Wunderground v.1.15,2013-01-05 05:29:00,
2013-01-04 23:35:00,40.6,37.3,30.40,NW,309,2.0,3.0,88,0.00,,,0.09,Wunderground v.1.15,2013-01-05 05:35:00,
2013-01-04 23:42:00,40.6,37.3,30.40,NNE,32,2.0,2.0,88,0.00,,,0.09,Wunderground v.1.15,2013-01-05 05:42:00,
2013-01-04 23:48:00,40.6,37.0,30.40,NE,50,1.0,2.0,87,0.00,,,0.09,Wunderground v.1.15,2013-01-05 05:48:00,
2013-01-04 23:53:00,40.6,37.0,30.39,NW,311,1.0,2.0,87,0.00,,,0.09,Wunderground v.1.15,2013-01-05 05:53:00,
2013-01-04 23:59:00,40.6,37.0,30.39,ENE,65,2.0,2.0,87,0.00,,,0.09,Wunderground v.1.15,2013-01-05 05:59:00,